sat.trackr.live / text

‹ back to catalog

TECHDEMOSAT-1 (TDS-1)

NORAD 40076 · 2014-037H

PAYLOAD ACTIVE UNKNOWN

§ Identity

Operator
Country
UK
Launch date
2014-07-08
Launch site
TYMSC
Launch vehicle
Mass (kg)
RCS (m²)
0.52

Purposes: tech_demo

External: N2YO · Heavens-Above · Gunter

§ Orbital elements

Epoch: 2026-09-09T23:05:10.332096Z

Period
95.09 min
Inclination
98.3869°
Eccentricity
0.0005777
Mean motion
15.14358122 rev/d
Perigee alt
518.9 km
Apogee alt
526.9 km
Semi-major
6,901.1 km
B*
3.6256e-4
RAAN
253.6801°
Arg perigee
357.9162°
Mean anomaly
2.2042°
Rev number
66,105

§ Raw data

TECHDEMOSAT-1 (TDS-1)1 40076U 14037H   26252.96192514  .00006574  00000+0  36256-3 0  99922 40076  98.3869 253.6801 0005777 357.9162   2.2042 15.14358122661056

JSON: /api/v1/satellites/40076 · /tle

For live sub-satellite position, see the globe view (requires WebGL).

§ Visibility from observer

Set your observer location to see the next 7 days of passes ≥ 10°. The values pass through the URL so the page stays shareable.

No JS? Fill the form by hand. The geolocation button needs JavaScript.